GSAT-8

Last updated on Sun Apr 12 2026 00:02:52 GMT+0000 (Coordinated Universal Time)

1 37605U 11022A 26101.46027507 .00000087 00000+0 00000+0 0 9991 2 37605 1.9576 82.6133 0005272 225.8144 112.0266 1.00273023 52548
UTC large
Height (km)
Speed (km/s)
/
Latitude / Longitude
Inclination (degrees)
Orbital Period (minutes)
Azimuth
Elevation
Range (km)
Doppler Factor

Next 0 passes for location: London (51.5072 / 0.1276)

Sorry there are no passes over London.
GSAT-8